Regional Weather Roundup
Issued by NWS

Home | Current Version | Previous Version | Graphics & Text | Print | Product List | Glossary On
Versions: 1 2 3 4 5 6 7 8 9 10 11 12 13 14 15 16 17 18 19 20 21 22 23 24 25 26 27 28 29 30 31 32 33 34 35 36 37 38 39 40 41 42 43 44 45 46 47 48 49 50
786
ASUS43 KLOT 221412
RWRIL

ILLINOIS REGIONAL WEATHER ROUNDUP
NATIONAL WEATHER SERVICE CHICAGO/ROMEOVILLE IL
900 AM CDT FRI MAY 22 2015

NOTE: "FAIR" INDICATES FEW OR NO CLOUDS BELOW 12,000 FEET WITH NO
SIGNIFICANT WEATHER AND/OR OBSTRUCTIONS TO VISIBILITY.

* THESE STATIONS ARE NOT UNDER NWS QUALITY CONTROL. THEY ALSO MAY NOT
  REPORT WEATHER SUCH AS PRECIPITATION OR FOG.

ILZ001-002-007-009-015-016-024-221500-
NORTHWEST ILLINOIS

CITY           SKY/WX    TMP DP  RH WIND       PRES   REMARKS
MOLINE         SUNNY     62  42  47 CALM      30.18R
STERLING*      SUNNY     61  46  59 NE7       30.19R
SAVANNA*       SUNNY     60  44  55 E6        30.19S
$$

ILZ003-004-008-010-011-017-018-221500-
NORTH CENTRAL ILLINOIS

CITY           SKY/WX    TMP DP  RH WIND       PRES   REMARKS
ROCKFORD       SUNNY     59  35  40 E7        30.22R
FREEPORT*      SUNNY     56  38  50 E8        30.21S
ROCHELLE*      SUNNY     59  42  52 E5        30.20R
DE KALB*       SUNNY     58  37  46 E8        30.20R
PERU*          SUNNY     60  47  61 E6        30.18S
$$

ILZ005-006-012>014-019>023-221500-
NORTHEAST ILLINOIS

CITY           SKY/WX    TMP DP  RH WIND       PRES   REMARKS
CHICAGO-OHARE  SUNNY     57  37  47 NE9       30.19R
CHICAGO-MIDWAY SUNNY     59  44  57 E8        30.19R
AURORA         SUNNY     61  40  45 E8        30.19R
LANSING*       SUNNY     59  46  61 N5        30.18R
JOLIET*        SUNNY     62  48  61 CALM      30.18R
WAUKEGAN       SUNNY     54  34  46 NE7       30.21R
DUPAGE AIRPORT SUNNY     59  40  49 E9        30.18R
KANKAKEE*      SUNNY     62  48  60 N6        30.18R
WHEELING       SUNNY     55  36  48 NE9       30.22R
MORRIS*        SUNNY     60  46  61 E6        30.16R
ROMEOVILLE*    SUNNY     60  44  55 E5        30.18R
NORTHERLY ISL    N/A     51  42  71 N10         N/A
$$

LMZ740>746-221500-
SOUTHERN LAKE MICHIGAN

STATION/POSITION SKY/WX   TEMP    WIND        PRES    VSBY  WAVE
                          AIR SEA DIR/SP/G                  HT/PER
                          (F)     (DEG/KT/KT) (MB)    (MI)  (FT/S)
SOUTHERN BUOY              40 38  350/  8/  8 1023.7R         1
HARRISON CRIB              47     350/ 13/ 15   N/A
BURNHAM HARBOR             51      10/ 11/ 13   N/A
CALUMET HARBOR             51     350/  5/  7   N/A
BURNS HARBOR               54      40/  5/  5 1021.7R
MICHIGAN CITY              55      30/  4/  5   N/A
MICHIGAN CITY 6N           51 51   20/  6/  8   N/A           1
ST. JOSEPH                 56 53  110/  8/ 10   N/A           1
$$

ILZ025>027-034>036-040-047-049-050-058-095>099-221500-
WEST-CENTRAL ILLINOIS

CITY           SKY/WX    TMP DP  RH WIND       PRES   REMARKS
QUINCY         SUNNY     62  45  53 NW8       30.21R
GALESBURG*     SUNNY     62  46  55 NW3       30.19R
MACOMB*        SUNNY     62  48  60 NW6       30.22R
JACKSONVILLE*  SUNNY     64  47  52 W7        30.21R
PITTSFIELD*    SUNNY     63  47  56 W8        30.23S
$$

ILZ028>032-037-038-041>044-048-051>054-059>061-221500-
CENTRAL ILLINOIS

CITY           SKY/WX    TMP DP  RH WIND       PRES   REMARKS
PONTIAC        SUNNY     64  49  58 NE3       30.18S
BLOOMINGTON    SUNNY     63  47  55 NW6       30.20R
DECATUR        SUNNY     63  48  58 W9        30.20R
PEORIA         SUNNY     64  46  52 CALM      30.19R
LACON*         SUNNY     60  46  59 CALM      30.18R
LINCOLN*       SUNNY     64  48  56 W6        30.18R
SPRINGFIELD    SUNNY     64  47  53 W7        30.21R
TAYLORVILLE    SUNNY     61  46  59 W9        30.22R
$$

ILZ033-039-045-046-055>057-062-063-221500-
EAST-CENTRAL ILLINOIS

CITY           SKY/WX    TMP DP  RH WIND       PRES   REMARKS
CHAMPAIGN      SUNNY     62  48  60 W7        30.19R
DANVILLE*      SUNNY     60  48  66 NW6       30.16R
RANTOUL*       SUNNY     65  48  53 NW9       30.18R
MATTOON        SUNNY     62  48  60 W8        30.20R
PARIS*         SUNNY     63  48  56 W9        30.20R
$$

ILZ079-100>102-221500-
SOUTHWEST ILLINOIS

CITY           SKY/WX    TMP DP  RH WIND       PRES   REMARKS
ALTON          SUNNY     61  52  72 SW9       30.24R
BELLEVILLE     SUNNY     62  51  68 SW8       30.23F
CAHOKIA*       SUNNY     60  48  64 SW10      30.25R
SPARTA*        SUNNY     59  48  67 W7        30.28S
$$

ILZ064>066-069>071-074>076-080>082-084>086-088>090-092>094-221500-
SOUTH-CENTRAL ILLINOIS

CITY           SKY/WX    TMP DP  RH WIND       PRES   REMARKS
CARBONDALE     SUNNY     60  48  64 SW10      30.28S
CAIRO*         SUNNY     58  49  71 W3        30.31S
EFFINGHAM*     SUNNY     61  44  53 SW8       30.24R
MARION         SUNNY     61  50  67 SW12      30.29S
MT. VERNON     SUNNY     61  48  63 SW9       30.26S
CENTRALIA*     SUNNY     60  46  60 SW9       30.25S
SALEM*         SUNNY     62  48  60 SW9       30.24R
METROPOLIS*    SUNNY     60  51  73 SW3       30.30R
$$

ILZ067-068-072-073-078-083-087-091-221500-
SOUTHEAST ILLINOIS

CITY           SKY/WX    TMP DP  RH WIND       PRES   REMARKS
LAWRENCEVILLE  SUNNY     61  47  59 SW13      30.24R
FLORA*         SUNNY     59  47  66 SW10      30.24S
FAIRFIELD*     SUNNY     59  49  68 S9        30.24S
HARRISBURG*    SUNNY     59  49  69 SW9       30.29S
ROBINSON*      SUNNY     60  47  61 SW9       30.24R
CARMI*         SUNNY     62  44  51 SW10      30.27S
$$

ABBREVIATIONS USED IN REMARKS
   TC - TEMPERATURE IN CELSIUS
  WCI - WIND CHILL INDEX
   HX - HEAT INDEX
  VSB - VISIBILITY
$$




USA.gov is the U.S. government's official web portal to all federal, state and local government web resources and services.